星链-31193 (STARLINK-31193 )

导读 | 星芒AI

STARLINK-31193 是 SpaceX Starlink 卫星互联网项目中的一颗低轨通信卫星。该卫星属于 Starlink 群体部署计划的一部分,旨在为全球用户提供高速、低延迟的互联网服务。它运行在约 550 公里的近地轨道,采用先进推进系统和激光通信技术,以提升网络效率和稳定性。STARLINK-31193 的发射和运行有助于扩展 Starlink 在全球范围的覆盖能力,特别是在偏远和网络基础设施薄弱的地区。

基本信息
目录编号:
58797
目录名称:
STARLINK-31193
国际标识:
2024-012L
轨道中心:
EARTH
卫星名称:
星链-31193
卫星全名:
星链-31193 (STARLINK-31193 )
卫星状态:
在轨 (已飞行655 天)
发射日期:
2024-01-15 UTC
国别 :
美国 (US)
星等 :
--
轨道信息
数据来源 国际轨道数据
星历时间: 2025-10-31T16:01:05+0800
12小时前
查看轨道信息
半长轴: 6861.176km
偏心率: 0.0001337
轨道倾角: 42.999°
近地点辐角 285.887°
升交点赤经 175.697°
平近点角 74.183°
近地点: 482.123km
远地点: 483.959km
周期: 94.267分钟
每日圈数: 15.275836
详细信息
固有亮度:
5
最大亮度:
0.3
卫星平台:
Starlink v2.0 mini
覆盖范围:
全球
运营商:
太空探索技术公司
运营商所在国:
美国
制造商(研发单位):
太空探索技术公司
制造商所在国:
美国
使用方式:
暂无
卫星简介
星链(Starlink)计划是由太空探索技术公司(SpaceX)提出的一个巨型低轨卫星互联网星座项目,计划在2019年至2024年间在太空搭建由约1.2万颗卫星组成的“星链”网络,其中1584颗将部署在地球上空550千米处的近地轨道,并从2020年开始工作。该卫星仍在工作。
2D轨道图
3D轨道图
轨道高度分析图
轨道倾角分析图
轨道综合分析图
查看轨道综合分析图